Voltar ao catálogo

DELTA 1 DEB

AtivoPO
NORAD 21271·DEBRIS·🇺🇸 United States

Lançado Jun 12, 1975 de Vandenberg Space Force Base

Loading…

Próximas Passagens (próximas 24 horas)

TLE

AtualizadoSource: Space-Track

Época: Sep 12, 2026, 12:52 UTC

1 21271U 75052G   26255.53615834  .00000604  00000-0  17772-2 0  9993
2 21271  99.5541 274.0773 0244279 112.9458  39.4596 13.02572607679186

Acompanhe DELTA 1 DEB em tempo real com AllMySat

Download on the App Store